Regional Weather Roundup
Issued by NWS Charleston, WV

Home | Current Version | Previous Version | Text Only | Print | Product List | Glossary On
Versions: 1 2 3 4 5 6 7 8 9 10 11 12 13 14 15 16 17 18 19 20 21 22 23 24 25 26 27 28 29 30 31 32 33 34 35 36 37 38 39 40 41 42 43 44 45 46 47 48 49 50
000
ASUS41 KRLX 180810
RWRRLX
West Virginia Regional Weather Roundup
National Weather Service Charleston WV
300 AM EST THU DEC 18 2014

Note: "fair" indicates few or no clouds below 12,000 feet with no
significant weather and/or obstructions to visibility.

WVZ003-180900-
Northern Panhandle of West Virginia

CITY           SKY/WX    TMP DP  RH WIND       PRES   REMARKS
WHEELING       CLOUDY    27  19  72 W8        30.19R
$$

WVZ009-180900-
Northwest West Virginia

CITY           SKY/WX    TMP DP  RH WIND       PRES   REMARKS
PARKERSBURG    CLOUDY    28  19  69 W6        30.27R
$$

WVZ006-180900-
Western West Virginia

CITY           SKY/WX    TMP DP  RH WIND       PRES   REMARKS
HUNTINGTON     CLOUDY    30  22  72 NW3       30.25R
$$

WVZ015-180900-
West Central West Virginia

CITY           SKY/WX    TMP DP  RH WIND       PRES   REMARKS
CHARLESTON     CLOUDY    32  23  69 N6        30.23R
$$

WVZ022-031-180900-
North Central West Virginia

CITY           SKY/WX    TMP DP  RH WIND       PRES   REMARKS
CLARKSBURG     CLOUDY    29  20  69 W8        30.19R
MORGANTOWN     CLOUDY    29  16  58 NW6       30.18R
$$

WVZ025-035-042-045-180900-
Southern West Virginia

CITY           SKY/WX    TMP DP  RH WIND       PRES   REMARKS
BECKLEY        CLOUDY    27  20  75 NW10      30.13R
LOGAN          CLOUDY    30  25  80 CALM      30.19S
BLUEFIELD      CLOUDY    28  21  75 NW10G22   30.11S
LEWISBURG      MOCLDY    29  21  71 NW5       30.11R
$$

WVZ047-180900-
Northern Mountains of West Virginia

CITY           SKY/WX    TMP DP  RH WIND       PRES   REMARKS
ELKINS         CLOUDY    28  22  78 NW9       30.13S
$$

WVZ052-180900-
Eastern Panhandle of West Virginia

CITY           SKY/WX    TMP DP  RH WIND       PRES   REMARKS
MARTINSBURG    CLOUDY    36  17  46 NW10      30.10R
PETERSBURG     PTCLDY    33  18  54 W3        30.13R
$$


USA.gov is the U.S. government's official web portal to all federal, state and local government web resources and services.